Погода Ярково

Погода Ярково : погода сейчас, прогноз погоды и архив. Всё, что Вы хотите узнать о погоде Ярково!

Хотите узнать прогноз погоды Ярково? Тогда Вам сюда: Погода Ярково

Поиск расширенной информации на нашем сайте:

Другие новости

Новости СМИ2

Главная страница сайта

Новости сайта

02.10.2013

Напоминаем, что на нашем новом сайте вы можете получить высокодетализированные прогнозы погоды по пунктам России, СНГ и мира (включающие важные для авиации метеовеличины, такие как направление и скорость ветра, видимость, явления погоды, количество и форма облачности, нижняя и верхняя граница облачности), а также ознакомиться с разнообразными материалами по авиационной метеорологии и подборкой полезных ссылок на эту тему.

Сайт Метеоцентр.Азия посвящён разработке технологий оптимизации авиаметеорологического обслуживания, включая проектирование и перспективное создание нескольких автоматизированных авиаметеорологических систем:
- система выпуска высокодетальных прогностических карт явлений погоды для нижнего воздушного пространства по России и ближнему зарубежью;
- система верификации прогнозов TAF (выпускаемых синоптиками официальных АМСГ РФ и ближнего зарубежья) и AUTOTAF (выпускаемых сайтом Метеоцентр.Азия) - выявление ошибок, онлайн-сопоставление с фактической погодой METAR, автоматическое внесение коррективов в прогнозы при резком отклонении фактической погоды от прогноза, подсчёт оправдываемости прогнозов по элементам и в целом;
- система обработки, анализа и отображения авиаметеорологической информации для применения провайдерами метеорологической информации.

Рекомендуем: relux ватные валочки

Погода Ярково - сегодня

Время (UTC), дата Ветер
(°,м/с) 
Видим.   Явления Облачность Т
(°С)
Тd
(°С)
f(%) Тe
(°С)
Pmin
(гПа)
dP
(гПа)
Po
(мм)
O2
(г/м3)
Тmin Tmax R s Состояние
почвы
21 18.01.17 190 (Ю) 20000 м  [диам. изморози 4 мм]  ясно 
-17.8 -20.1 82 -20  1029.6  -1.4  767  332           
00 19.01.17 190 (Ю) 20000 м  [диам. изморози 4 мм]  ясно 
-17.6 -20 81 -20  1028.3  -1.3  766  332           
03 19.01.17 190 (Ю) 10 км  [диам. изморози 4 мм]  8/0 верхняя 
[Cs]
-16.5 -18.8 82 -20  1026.6  -1.6  765  330  -21.4      56  равномерный
сухой снег
100% 
06 19.01.17 190 (Ю) 10 км  [диам. изморози 4 мм]  8/0 верхняя 
[Cs]
-16.1 -18.6 81 -18  1026.2  -0.4  765  329           
09 19.01.17 200 (Ю) 10 км  {ливн. осадки} [диам. изморози 3 мм]  3/0 верхняя 
[Cs]
-13.2 -15.6 82 -15  1024.4  -1.7  763  325           
12 19.01.17 160 (Ю) 10 км  {снег} [диам. изморози 0 мм]  3/0 верхняя 
[Ci fib]
-16.2 -18.4 83 -16  1022.3  -2.1  762  328           
15 19.01.17 190 (Ю) 10 км    3/3 600 м 
[Sc]
-16.6 -19 82 -19  1020.7  -1.7  760  328    -13.2  0.0     
18 19.01.17 200 (Ю) 4000 м  слаб. ливневой снег  10/10 600 м кучево-дожд. 
[Cb cap]
-17.5 -19.9 82 -18  1019.1  -1.6  759  328           
21 19.01.17 200 (Ю) 10 км  {ливн. осадки}  ясно 
-19.7 -22.3 80 -22  1017.2  -1.9  758  331           
00 20.01.17 200 (Ю) 10 км  {ливн. осадки}  ясно 
-20.5 -23.2 79 -23  1015.4  -1.8  756  331           
03 20.01.17 200 (Ю) 10 км    4/0 верхняя 
[Ci fib]
-20.9 -23.7 78 -25  1013  -2.4  755  331  -20.9    0.0  55  равномерный
сухой снег
100% 
06 20.01.17 200 (Ю) 10 км    10/0 верхняя 
[Cs]
-19.8 -22.7 78 -24  1011.3  -1.6  753  329  -21.3         
09 20.01.17 200 (Ю) 10 км    10/0 верхняя 
[Cs]
-16.8 -19.9 77 -21  1007.8  -3.4  751  324           
12 20.01.17 180 (Ю) 10 км    8/0 верхняя 
[Cs]
-17.4 -20.3 78 -21  1005  -2.8  749  324           
15 20.01.17 180 (Ю) 10 км    6/0 верхняя 
[Cs]
-17 -20 78 -21  1001.7  -3.2  746  322    -16.1       
18 20.01.17 190 (Ю) 4000 м  слаб. снег  10/0 средняя 
[As trans]
-16.9 -20.2 75 -22  999.4  -2.3  745  321           
21 20.01.17 180 (Ю) 4000 м  слаб. снег  10/0 средняя 
[As op]
-15.9 -18.7 79 -20  996.7  -2.6  743  319           
00 21.01.17 180 (Ю) 4000 м  слаб. снег  10/0 средняя 
[As op]
-16.4 -18.9 81 -20  994.4  -2.3  741  319           
03 21.01.17 190 (Ю) 4000 м  слаб. снег  10/0 средняя 
[As trans]
-13.6 -15.9 83 -18  991.5  -2.8  739  315  -17    58  равномерный
сухой снег
100% 
06 21.01.17 200 (Ю) 4000 м  слаб. снег  10/0 средняя 
[As trans]
-11.2 -13.7 82 -15  990.8  -0.6  738  311           
09 21.01.17 210 (ЮЗ) 10 км  позёмок{снег}  4/0 средняя 
[Ac trans]
-9.9 -13.8 73 -13  990.2  -0.5  738  310           
12 21.01.17 210 (ЮЗ) 4{10}  10 км  позёмок{снег}  3/0 верхняя 
[Ci sp]
-9.5 -13 76 -13  991.6  1.3  739  310           
15 21.01.17 210 (ЮЗ) 4{10}  10 км  позёмок  ясно 
-9.7 -13.3 75 -14  992.3  0.7  739  310    -8.9  0.3     
18 21.01.17 220 (ЮЗ) 4{10}  4000 м  слаб. снег  10/0 средняя 
[As op]
-8.7 -10.7 85 -12  993.3  740  309           
21 21.01.17 220 (ЮЗ) 4000 м  слаб. снег  10/0 средняя 
[As op]
-9.6 -12 83 -13  995.1  1.8  741  311           
Время (UTC), дата Ветер
(°,м/с) 
Видим.   Явления Облачность Т
(°С)
Тd
(°С)
f(%) Тe
(°С)
Pmin
(гПа)
dP
(гПа)
Po
(мм)
O2
(г/м3)
Тmin Tmax R s Состояние
почвы

Для получения пояснительной информации подведите курсор к названию столбца.

ПОГОДА Ярково - архив

Всё, что Вы хотите узнать о погоде Ярково - удобно и подробно!

Выберите нужную дату (начиная с 1 января 2015* года) и нажмите кнопку "Найти".
Будут отображены архивные сводки погоды по пункту Ярково, начиная с указанной даты.


Отображать данные в формате CSV (для использования в таблицах Excel)


Внимание! Наш архив погоды предназначен исключительно для личного некоммерческого использования в познавательных целях. Если Вам необходимы официальные справки о состоянии погоды (для производственных, юридических, коммерческих и т.п. целей), обращайтесь в органы Росгидромета.

*Примечание: данная дата относится к архиву по метеостанциям СССР (Россия, СНГ, Балтия).
Архив по метеостанциям Зарубежной Европы и Азии (кроме Китая) хранится 10 дней, по другим регионам земного шара (Китай, Африка, Америка, Австралия, Океания) - 1 день.

Ярково - район местоположения метеостанции


Название, широта, долгота, высота метеостанции:
Ярково 57.4°ш. 67.1°д. 50 м над ур. моря [Российская Федерация]

Дополнительная информация

В oтличие oт бoльшинства пoгoдных сайтoв мы публикуем пoдрoбную метеoинфoрмацию в детальнoм прoфессиoнальнoм фoрмате.

Характеристики температуры и влажнoсти вoздуха измеряются на высoте 2 м в тени вдали oт зданий и деревьев.
Скoрoсть ветра измеряется на высoте 10 м (на урoвне рoста челoвека скoрoсть ветра ниже в 1.5-2 раза). Если метеoстанция нахoдится в гoрoде или в лесу, тo скoрoсть ветра занижена на 2-4 м/с пo сравнению с oткрытым местoм. Скoрoсть ветра над акватoриями крупных рек и oзёр, а также на вершинах хoлмoв на 2-5 м/с выше, чем в oбычных услoвиях.
Атмoсфернoе давление в разных тoчках местнoсти мoжет значительнo oтличаться oт давления на метеoстанции, в зависимoсти oт услoвий рельефа (при пoдъёме на 10 м давление пoнижается примернo на 1 мм рт.ст.).